x

Yucatan Basin - 120 Nm Ese Of Cozumel, Mx (42056) Wave Buoy

11:50 - Thu 31st Jul 2014 All times are CDT. -5 hours from GMT.

  • Sig Wave height 1.6ft
  • Swell Direction
  • Peak Period 8s
  • Average Period 5s
  • Wind
    7mph, 9mph gusts
  • Ar Temp 85°f
  • Sea Pressure 1014.8mb
  •  Yucatan Basin - 120 Nm Ese Of Cozumel, Mx
  •  Yucatan Basin - 120 Nm Ese Of Cozumel, Mx

More Historic Weather Station data

Upgrade to MSW Pro to gain access to the past 30 days of data for over 8000 Wavebouys and Weather Stations around the globe.

Join Pro

Comparision Forecast

View Surf forecast
   
Qui 07/31 11:50 1.6ft 8s 5s 7 9 mph 1014.8mb 85f
10:50 1.6ft 8s 5s 9 11 mph 1015.1mb 85f
9:50 2ft 8s 5s 9 11 mph 1014.6mb 85f
8:50 1.6ft 8s 5s 9
mph
1014.1mb 85f
7:50 1.6ft 8s 5s 9 11 mph 1013.8mb 86f
6:50 1.6ft 7s 5s 9 11 mph 1013.5mb 85f
5:50 1.6ft 7s 5s 7 9 mph 1013.2mb 86f
4:50 1.6ft 8s 5s 9
mph
1013.3mb 86f
3:50 1.6ft 7s 5s 9 11 mph 1013.7mb 86f
2:50 1.6ft 8s 5s 9 11 mph 1014.1mb 85f
1:50 1.6ft 7s 5s 9 11 mph 1014.7mb 85f
12:50 2ft 8s 5s 9 11 mph 1014.7mb 85f
11:50 2ft 8s 5s 9 11 mph 1015mb 85f
10:50 2ft 8s 5s 7 9 mph 1014.9mb 85f
8:50 2ft 8s 5s 7 9 mph 1014.6mb 85f
7:50 2ft 8s 6s 9
mph
1014.2mb 85f
6:50 2ft 8s 5s 9 11 mph 1013.9mb 84f
5:50 2ft 8s 6s 7 9 mph 1013.5mb 84f
4:50 2.5ft 8s 6s 7
mph
1013.6mb 84f
3:50 2.5ft 8s 6s 7 9 mph 1013.8mb 84f
2:50 2.5ft 8s 6s 7
mph
1014.4mb 85f
1:50 2.5ft 8s 5s 4 7 mph 1014.9mb 85f
12:50 2.5ft 8s 6s 7 9 mph 1015.5mb 85f
Qua 07/30 11:50 2.5ft 8s 6s 7 9 mph 1015.7mb 85f
10:50 2.5ft 9s 6s 9
mph
1016mb 86f
9:50 2.5ft 9s 6s 7 9 mph 1015.7mb 86f
8:50 2.5ft 8s 6s 9 11 mph 1015.2mb 86f
7:50 2.5ft 8s 6s 9 11 mph 1014.7mb 86f
6:50 2.5ft 8s 6s 9 11 mph 1014.3mb 86f
5:50 2.5ft 8s 6s 7 9 mph 1014.2mb 86f
4:50 2.5ft 8s 6s 7 9 mph 1014.2mb 86f
3:50 2.5ft 8s 6s 7 9 mph 1014.5mb 86f
2:50 3ft 8s 6s 7 9 mph 1014.7mb 86f
1:50 2.5ft 8s 6s 7 9 mph 1015.2mb 85f
12:50 2.5ft 8s 6s 4 7 mph 1015.6mb 85f
11:50 2.5ft 9s 6s 4 7 mph 1016.1mb 85f
10:50 2.5ft 8s 6s 2 4 mph 1016.4mb 85f
9:50 2.5ft 7s 6s 4
mph
1016.4mb 85f
8:50 2.5ft 9s 6s 4
mph
1016.2mb 85f
7:50 2.5ft 8s 6s 4 7 mph 1015.8mb 85f
6:50 3ft 9s 6s 7
mph
1015.3mb 84f
5:50 3ft 9s 6s 7 9 mph 1015mb 84f
4:50 3ft 9s 6s 7
mph
1014.9mb 84f
3:50 3ft 8s 6s 4 7 mph 1014.9mb 85f
2:50 3.5ft 8s 6s 7 9 mph 1015.2mb 85f
1:50 3ft 9s 5s 7 9 mph 1015.8mb 85f
12:50 3.5ft 9s 6s 9 11 mph 1016.2mb 85f
Ter 07/29 11:50 3.5ft 9s 6s 9 11 mph 1016.6mb 85f
9:50 3ft 9s 6s 11
mph
1016.7mb 86f
8:50 3.5ft 9s 6s 9 11 mph 1016.4mb 86f
7:50 3.5ft 9s 6s 11 13 mph 1016.1mb 86f
6:50 3.5ft 9s 6s 11 13 mph 1015.5mb 86f
5:50 3.5ft 9s 6s 11
mph
1015.3mb 86f
4:50 3.5ft 9s 6s 11 13 mph 1015.2mb 85f
3:50 3.5ft 8s 6s 9 11 mph 1015.8mb 85f
2:50 3.5ft 9s 6s 11 13 mph 1016.1mb 85f
1:50 4ft 8s 6s 11 13 mph 1016.4mb 85f
12:50 4ft 8s 6s 11 13 mph 1016.6mb 85f
11:50 3.5ft 7s 6s 9 11 mph 1016.7mb 85f
10:50 3.5ft 8s 6s 9 11 mph 1016.5mb 85f
9:50 3.5ft 7s 6s 7 9 mph 1016.4mb 84f
8:50 3.5ft 8s 6s 7 9 mph 1015.8mb 84f
7:50 3.5ft 8s 6s 7
mph
1015.7mb 84f
6:50 3.5ft 8s 6s 4 7 mph 1015.8mb 84f
5:50 3.5ft 9s 6s 7
mph
1015.6mb 84f
4:50 3.5ft 6s 6s 7
mph
1015.8mb 84f
3:50 4ft 8s 6s 7
mph
1015.6mb 84f
2:50 3.5ft 9s 6s 7 9 mph 1015.8mb 84f
1:50 3.5ft 6s 5s 9 11 mph 1016.1mb 84f
12:50 4ft 8s 6s 11 13 mph 1016.4mb 85f
Seg 07/28 11:50 3.5ft 6s 6s 9
mph
1016.9mb 85f
10:50 3.5ft 8s 5s 11 13 mph 1017.1mb 84f
9:50 3.5ft 7s 5s 11 13 mph 1017.6mb 83f
8:50 3.5ft 8s 5s 7 9 mph 1017.3mb 81f
7:50 3.5ft 8s 5s 13 16 mph 1016.9mb 80f
6:50 3.5ft 7s 5s 16 18 mph 1016.7mb 79f
5:50 3.5ft 7s 5s 11 27 mph 1016.1mb 75f
4:50 3.5ft 6s 5s 11 13 mph 1015.3mb 86f
3:50 3.5ft 7s 5s 11 13 mph 1015.7mb 86f
2:50 3.5ft 8s 5s 13
mph
1015.9mb 85f
1:50 3.5ft 8s 5s 11 13 mph 1016.7mb 85f
12:50 3.5ft 7s 5s 11 13 mph 1017mb 85f
11:50 4ft 8s 5s 13 16 mph 1017.3mb 85f
10:50 3.5ft 7s 5s 13 16 mph 1017.3mb 85f
9:50 3.5ft 9s 5s 13 16 mph 1017.1mb 85f
8:50 3.5ft 7s 5s 13 16 mph 1016.8mb 85f
7:50 3.5ft 9s 5s 11 13 mph 1016.6mb 85f
6:50 3.5ft 8s 5s 13 16 mph 1016.2mb 85f